TimeCST,TemperatureF,Dew PointF,Humidity,Sea Level PressureIn,VisibilityMPH,Wind Direction,Wind SpeedMPH,Gust SpeedMPH,PrecipitationIn,Events,Conditions,WindDirDegrees,DateUTC
12:28 AM,57.2,57.2,100,30.04,9.0,NNE,2.3,-,N/A,,Overcast,30,2013-02-06 06:28:00
12:38 AM,57.2,57.2,100,30.04,5.0,NE,2.3,-,N/A,,Overcast,50,2013-02-06 06:38:00
12:43 AM,57.2,57.2,100,30.04,5.0,East,2.3,-,N/A,,Overcast,80,2013-02-06 06:43:00
12:48 AM,57.2,57.2,100,30.04,6.0,ENE,2.3,-,N/A,,Overcast,70,2013-02-06 06:48:00
12:53 AM,57.2,57.2,100,30.04,7.0,Calm,Calm,-,N/A,,Overcast,0,2013-02-06 06:53:00
12:58 AM,56.7,56.3,99,30.04,7.0,Calm,Calm,-,N/A,,Overcast,20,2013-02-06 06:58:00
1:18 AM,57.2,57.2,100,30.04,6.0,Calm,Calm,-,N/A,,Overcast,0,2013-02-06 07:18:00
1:33 AM,57.2,57.2,100,30.05,5.0,NNW,2.3,-,N/A,,Overcast,340,2013-02-06 07:33:00
1:38 AM,57.2,57.2,100,30.05,2.5,North,3.5,-,N/A,,Overcast,360,2013-02-06 07:38:00
1:43 AM,57.2,55.4,94,30.05,1.5,North,3.5,-,N/A,,Overcast,360,2013-02-06 07:43:00
1:48 AM,57.2,55.4,94,30.05,1.0,North,3.5,-,N/A,,Mist,350,2013-02-06 07:48:00
1:53 AM,57.2,55.4,94,30.05,0.8,North,4.6,-,N/A,,Mist,360,2013-02-06 07:53:00
1:58 AM,56.5,56.1,99,30.05,0.8,North,3.5,-,N/A,,Mist,10,2013-02-06 07:58:00
2:03 AM,57.2,55.4,94,30.05,0.5,North,2.3,-,N/A,Fog,Fog,10,2013-02-06 08:03:00
2:08 AM,57.2,55.4,94,30.05,0.5,North,3.5,-,N/A,Fog,Fog,360,2013-02-06 08:08:00
2:13 AM,57.2,55.4,94,30.05,0.2,North,3.5,-,N/A,Fog,Fog,360,2013-02-06 08:13:00
2:48 AM,55.4,55.4,100,30.05,0.5,North,3.5,-,N/A,Fog,Fog,350,2013-02-06 08:48:00
2:58 AM,55.9,55.6,99,30.05,0.5,North,3.5,-,N/A,Fog,Fog,350,2013-02-06 08:58:00
3:03 AM,55.4,55.4,100,30.06,0.5,North,3.5,-,N/A,Fog,Fog,350,2013-02-06 09:03:00
3:08 AM,55.4,55.4,100,30.06,0.8,North,2.3,-,N/A,,Mist,350,2013-02-06 09:08:00
3:23 AM,55.4,55.4,100,30.06,0.5,North,3.5,-,N/A,Fog,Fog,10,2013-02-06 09:23:00
3:58 AM,57.2,55.4,94,30.06,0.8,NE,4.6,-,N/A,,Mist,40,2013-02-06 09:58:00
4:08 AM,57.2,55.4,94,30.06,1.0,NNE,5.8,-,N/A,,Mist,20,2013-02-06 10:08:00
4:33 AM,57.2,55.4,94,30.07,1.2,NE,8.1,-,N/A,,Overcast,40,2013-02-06 10:33:00
4:58 AM,56.3,55.9,99,30.07,1.2,NNE,6.9,-,N/A,,Overcast,20,2013-02-06 10:58:00
5:13 AM,55.4,55.4,100,30.08,1.0,NNE,5.8,-,N/A,,Mist,30,2013-02-06 11:13:00
5:23 AM,55.4,55.4,100,30.08,1.2,NNE,4.6,-,N/A,,Overcast,30,2013-02-06 11:23:00
5:33 AM,55.4,55.4,100,30.09,1.5,NNE,6.9,-,N/A,,Overcast,20,2013-02-06 11:33:00
5:43 AM,55.4,55.4,100,30.09,2.0,NNE,4.6,-,N/A,,Overcast,30,2013-02-06 11:43:00
5:48 AM,55.4,55.4,100,30.09,1.8,NNE,3.5,-,N/A,,Overcast,30,2013-02-06 11:48:00
5:58 AM,56.3,55.9,99,30.10,1.5,NE,4.6,-,N/A,,Overcast,50,2013-02-06 11:58:00
6:03 AM,55.4,55.4,100,30.10,2.0,NE,3.5,-,N/A,,Overcast,40,2013-02-06 12:03:00
6:18 AM,55.4,55.4,100,30.11,2.5,NNE,3.5,-,N/A,,Overcast,30,2013-02-06 12:18:00
6:28 AM,55.4,55.4,100,30.11,2.0,NNE,2.3,-,N/A,,Overcast,30,2013-02-06 12:28:00
6:33 AM,57.2,55.4,94,30.11,1.5,NNE,3.5,-,N/A,,Overcast,30,2013-02-06 12:33:00
6:38 AM,57.2,55.4,94,30.11,1.2,NE,2.3,-,N/A,,Overcast,40,2013-02-06 12:38:00
6:48 AM,57.2,55.4,94,30.11,1.5,NE,4.6,-,N/A,,Overcast,40,2013-02-06 12:48:00
6:53 AM,57.2,55.4,94,30.11,2.5,NE,5.8,-,N/A,,Overcast,40,2013-02-06 12:53:00
6:58 AM,57.2,55.4,94,30.11,2.0,ENE,5.8,-,N/A,,Overcast,60,2013-02-06 12:58:00
7:03 AM,55.4,55.4,100,30.11,1.2,NE,6.9,-,N/A,,Overcast,40,2013-02-06 13:03:00
7:08 AM,55.4,55.4,100,30.11,2.0,NE,4.6,-,N/A,,Overcast,40,2013-02-06 13:08:00
7:13 AM,55.4,55.4,100,30.11,1.8,ENE,5.8,-,N/A,,Overcast,70,2013-02-06 13:13:00
7:23 AM,55.4,55.4,100,30.12,2.5,ENE,4.6,-,N/A,,Overcast,70,2013-02-06 13:23:00
7:28 AM,55.4,55.4,100,30.11,3.0,NE,8.1,-,N/A,,Overcast,40,2013-02-06 13:28:00
7:43 AM,55.4,55.4,100,30.12,1.8,NE,4.6,-,N/A,,Overcast,50,2013-02-06 13:43:00
7:48 AM,57.2,55.4,94,30.12,2.0,NE,4.6,-,N/A,,Overcast,50,2013-02-06 13:48:00
7:53 AM,57.2,55.4,94,30.13,4.0,NE,4.6,-,N/A,,Overcast,50,2013-02-06 13:53:00
7:58 AM,56.5,56.1,99,30.12,4.0,NE,4.6,-,N/A,,Overcast,40,2013-02-06 13:58:00
8:08 AM,57.2,57.2,100,30.12,2.5,ENE,8.1,-,N/A,,Overcast,60,2013-02-06 14:08:00
8:13 AM,57.2,57.2,100,30.13,4.0,NE,5.8,-,N/A,,Overcast,50,2013-02-06 14:13:00
8:33 AM,57.2,57.2,100,30.13,10.0,ENE,5.8,-,N/A,,Overcast,60,2013-02-06 14:33:00
8:48 AM,57.2,57.2,100,30.14,10.0,ENE,5.8,-,N/A,,Overcast,60,2013-02-06 14:48:00
9:34 AM,59.0,57.2,94,30.14,6.0,ENE,5.8,-,N/A,,Overcast,60,2013-02-06 15:34:00
9:55 AM,59.2,58.8,99,30.15,7.0,Variable,5.8,-,N/A,,Overcast,0,2013-02-06 15:55:00
10:55 AM,63.9,56.7,77,30.15,7.0,NE,6.9,-,N/A,,Mostly Cloudy,40,2013-02-06 16:55:00
11:37 AM,66.2,57.2,73,30.13,10.0,NNE,5.8,-,N/A,,Mostly Cloudy,30,2013-02-06 17:37:00
11:55 AM,66.7,56.3,69,30.13,10.0,Variable,5.8,-,N/A,,Mostly Cloudy,0,2013-02-06 17:55:00
12:55 PM,67.6,56.7,68,30.11,10.0,NNE,4.6,-,N/A,,Mostly Cloudy,30,2013-02-06 18:55:00
1:55 PM,70.9,56.8,61,30.09,10.0,Variable,4.6,-,N/A,,Scattered Clouds,0,2013-02-06 19:55:00
2:55 PM,71.1,57.4,62,30.07,10.0,NNE,5.8,-,N/A,,Scattered Clouds,20,2013-02-06 20:55:00
3:55 PM,71.8,56.7,59,30.05,10.0,East,5.8,-,N/A,,Scattered Clouds,80,2013-02-06 21:55:00
4:55 PM,70.0,56.1,61,30.06,10.0,South,5.8,-,N/A,,Scattered Clouds,170,2013-02-06 22:55:00
5:55 PM,64.9,57.2,76,30.06,10.0,ESE,3.5,-,N/A,,Scattered Clouds,110,2013-02-06 23:55:00
6:55 PM,60.4,55.8,85,30.08,10.0,Calm,Calm,-,N/A,,Clear,0,2013-02-07 00:55:00
7:55 PM,58.1,55.4,91,30.08,10.0,South,2.3,-,N/A,,Clear,190,2013-02-07 01:55:00
8:55 PM,53.6,52.7,97,30.07,10.0,ENE,2.3,-,N/A,,Clear,60,2013-02-07 02:55:00
9:55 PM,56.1,54.3,94,30.06,10.0,SSE,4.6,-,N/A,,Scattered Clouds,150,2013-02-07 03:55:00
10:55 PM,57.2,54.7,91,30.07,10.0,SSE,3.5,-,N/A,,Mostly Cloudy,160,2013-02-07 04:55:00
11:55 PM,55.8,54.7,96,30.06,10.0,Calm,Calm,-,N/A,,Overcast,0,2013-02-07 05:55:00